Weather Roundup
Issued by NWS Chicago, IL

Home | Current Version | Previous Version | Text Only | Print | Product List | Glossary On
Versions: 1 2 3 4 5 6 7 8 9 10 11 12 13 14 15 16 17 18 19 20 21 22 23 24 25 26 27 28 29 30 31 32 33 34 35 36 37 38 39 40 41 42 43 44 45 46 47 48 49 50
000
NZUS59 KLOT 291921
HRRLOT

CHICAGO AREA WEATHER ROUNDUP
NATIONAL WEATHER SERVICE CHICAGO/ROMEOVILLE IL
200 PM CDT SAT AUG 29 2015

NOTE: "FAIR" INDICATES FEW OR NO CLOUDS BELOW 12,000 FEET WITH NO
SIGNIFICANT WEATHER AND/OR OBSTRUCTIONS TO VISIBILITY.

* THESE STATIONS ARE NOT UNDER NWS QUALITY CONTROL. THEY ALSO MAY NOT
  REPORT WEATHER SUCH AS PRECIPITATION OR FOG.

ILZ005-006-012>014-019>023-292000-
NORTHEAST ILLINOIS

CITY           SKY/WX    TMP DP  RH WIND       PRES   REMARKS
OHARE          CLOUDY    69  66  90 SW6       30.01F FOG
MIDWAY         CLOUDY    75  64  68 VRB6      30.00F
AURORA         CLOUDY    70  67  90 S6        30.02S FOG
LANSING*       CLOUDY    73  65  76 S7        30.02S
JOLIET*        CLOUDY    73  67  81 S7        30.01F
WAUKEGAN       CLOUDY    66  64  93 E3        30.02S
DUPAGE AIRPORT CLOUDY    69  65  86 S8        30.01F
WHEELING       CLOUDY    70  65  84 S8        30.02S
KANKAKEE*      CLOUDY    75  68  79 S5        30.03S
MORRIS*        CLOUDY    73  67  83 S5        30.00F
LEWIS AIRPORT* CLOUDY    73  64  73 SW13      30.01F
NORTHERLY IS     N/A     72  63  73 S8          N/A
$$

WIZ051-052-058>065-066-070>072-292000-
SOUTHEAST WISCONSIN

CITY           SKY/WX    TMP DP  RH WIND       PRES   REMARKS
MILWAUKEE      CLOUDY    63  60  90 NE6       30.04S FOG
KENOSHA*       CLOUDY    67  64  90 E7        30.03S
RACINE*        CLOUDY    64  61  90 E7        30.05S FOG
BURLINGTON     CLOUDY    65  62  91 CALM      30.03S
WAUKESHA       CLOUDY    63  61  94 CALM      30.06R FOG
WEST BEND      CLOUDY    63  61  94 CALM      30.06S FOG
$$

INZ001>003-010>013-019-020-292000-
NORTHWEST INDIANA

CITY           SKY/WX    TMP DP  RH WIND       PRES   REMARKS
GARY*          CLOUDY    75  64  69 MISG      30.02F
MICHIGAN CITY* NOT AVBL
RENSSELAER*    NOT AVBL
VALPARAISO     CLOUDY    72  67  84 SE8       30.04F
$$

LMZ740>746-292000-
SOUTHERN LAKE MICHIGAN

STATION/POSITION TIME  SKY/WX   TEMP WIND        PRES    VSBY
                                AIR  DIR/SP/G
                 (UTC)          (F)  (DEG/KT/KT) (MB)    (MI)
HARRISON CRIB    1900            71  230/  4/  5   N/A
BURNHAM HARBOR   1900            72  210/  3/ 11   N/A
CALUMET HARBOR   NOT AVBL
BURNS HARBOR     1800            72  180/  7/ 14 1017.6F
MICHIGAN CITY    1900            71  160/ 11/ 13   N/A
$$

ABBREVIATIONS USED IN REMARKS
   TC - TEMPERATURE IN CELSIUS
  WCI - WIND CHILL INDEX
   HX - HEAT INDEX
  VSB - VISIBILITY
$$



USA.gov is the U.S. government's official web portal to all federal, state and local government web resources and services.